Zurück zum Katalog

SL-16 DEB

AktivLEO
NORAD 22407·DEBRIS·🇷🇺 Russia

Gestartet Dec 25, 1992 von Baikonur Cosmodrome

Loading…

Nächste Überflüge (nächste 24 Stunden)

TLE

AktuellSource: Space-Track

Epoche: Sep 14, 2026, 08:08 UTC

1 22407U 92093CY  26257.33889972  .00000079  00000-0  98598-4 0  9998
2 22407  70.8591 121.5937 0180532 276.9161  81.1438 13.84236683696376

Verfolge SL-16 DEB in Echtzeit mit AllMySat

Download on the App Store